This is the latest recevied weather packets stored in our database for station/object N9DRW. If no packets are shown the sender has not sent any weather packets the latest 10 day(s).
| Time | Temp. | Humidity | Pressure | Rain* | Wind** | Luminosity | Snow |
|---|---|---|---|---|---|---|---|
| 1777735325 | 10° C | 44% | 0 hPa | 0 mm | - | - | - |
| 1777734726 | 10.56° C | 43% | 0 hPa | 0 mm | - | - | - |
| 1777734126 | 10.56° C | 48% | 0 hPa | 0 mm | - | - | - |
| 1777733526 | 10.56° C | 48% | 0 hPa | 0 mm | - | - | - |
| 1777732926 | 10° C | 51% | 0 hPa | 0 mm | - | - | - |
| 1777731726 | 8.89° C | 54% | 0 hPa | 0 mm | - | - | - |
| 1777731126 | 8.89° C | 57% | 0 hPa | 0 mm | - | - | - |
| 1777730525 | 8.33° C | 58% | 0 hPa | 0 mm | - | - | - |
| 1777729926 | 7.78° C | 62% | 0 hPa | 0 mm | - | - | - |
| 1777729326 | 7.78° C | 66% | 0 hPa | 0 mm | - | - | - |
| 1777728725 | 6.67° C | 69% | 0 hPa | 0 mm | - | - | - |
| 1777728126 | 6.67° C | 71% | 0 hPa | 0 mm | - | - | - |
| 1777727526 | 6.67° C | 73% | 0 hPa | 0 mm | - | - | - |
| 1777726926 | 6.11° C | 77% | 0 hPa | 0 mm | - | - | - |
| 1777725725 | 5° C | 80% | 0 hPa | 0 mm | - | - | - |
| 1777725126 | 4.44° C | 83% | 0 hPa | 0 mm | - | - | - |
| 1777724525 | 3.89° C | 85% | 0 hPa | 0 mm | - | - | - |
| 1777723926 | 3.89° C | 86% | 0 hPa | 0 mm | - | - | - |
| 1777723325 | 3.33° C | 87% | 0 hPa | 0 mm | - | - | - |
| 1777722726 | 2.78° C | 89% | 0 hPa | 0 mm | - | - | - |
| 1777722125 | 2.22° C | 92% | 0 hPa | 0 mm | - | - | - |
| 1777721527 | 1.67° C | 96% | 0 hPa | 0 mm | - | - | - |
| 1777720926 | 1.11° C | 95% | 0 hPa | 0 mm | - | - | - |
| 1777720326 | 1.11° C | 94% | 0 hPa | 0 mm | - | - | - |
| 1777719725 | 1.67° C | 93% | 0 hPa | 0 mm | - | - | - |
* Rain latest hour (hover to see other rain measurements)
** Current wind speed in m/s (hover to see current wind gust speed)